Find Starlink 30338

NORAD ID: 57718 Int'l Des: 2023-129 Owner: SPXS Country: US Constellation: starlink operational
LEOCIRCULAR

Current View

Loading 3D Globe...

About Starlink 30338

Starlink 30338 (NORAD 57718) is a starlink constellation satellite (v2 mini) launched Aug 27, 2023 by SPXS of US. It operates in LEO, CIRCULAR orbit with a mass of 730.00 kg.

Upcoming Passes

Passes for default location (London). Set your location on the main map for personalized predictions.

Altitude History

Loading altitude history...

Two-Line Element Set

1 57718U 23129W 26237.08808360 .00000607 00000-0 31592-4 0 9995
2 57718 43.0032 247.1616 0001733 280.8386 79.2271 15.27575321166434
Epoch: Aug 25, 2026 • Age: 10 hours

Current Status

Altitude 489.6 km
Apogee / Perigee N/A
Velocity 7.62 km/s
Sub-Earth Point -27.63°S, 62.64°W
Launch Date Aug 27, 2023
Age 2.9 years
Type internet

Technical Details

Classification Payload
Mass 730.00 kg
Dry Mass 700.00 kg
Total Mass 730.00 kg
Length 0.30 m
Diameter 4.10 m
Span 29.00 m
Shape Box + pan
Manufacturer SPXS
Bus Type Starlink V2M
Phase Status In Orbit
Owner/State SPXS/US

Most Searched